Melfa, VA

2:26 PM EDT on June 25, 2017 (GMT -0400)
Accomack County

Weather History for KMFV - February, 2014

Change the Weather History Date:

Sunday, February 16, 2014

  Actual Average (KWAL) Record (KWAL)
Temperature  
Mean Temperature 37 °F -  
Max Temperature 44 °F 46 °F 72 °F (1976)
Min Temperature 30 °F 30 °F 8 °F (2015)
Degree Days  
Heating Degree Days 28    
Moisture  
Dew Point 18 °F    
Average Humidity 48    
Maximum Humidity 65    
Minimum Humidity 25    
Precipitation  
Precipitation 0.00 in - - ()
Sea Level Pressure  
Sea Level Pressure 30.04 in    
Wind  
Wind Speed 11 mph (WNW)    
Max Wind Speed 23 mph    
Max Gust Speed 32 mph    
Visibility 10 miles    
Events      
Averages and records for this station are not official NWS values.
T = Trace of Precipitation, MM = Missing Value Source: NWS Daily Summary

Daily Weather History Graph

Daily Weather History Graph

Search for Another Location

Airport or City:

Trip Planner

Search our weather history database for the weather conditions in past years. The results will help you decide how hot, cold, wet, or windy it might be!

Date:

Astronomy

Feb. 16, 2014 Rise Set
Actual Time 6:51 AM EST 5:43 PM EST
Civil Twilight 6:24 AM EST 6:10 PM EST
Nautical Twilight 5:53 AM EST 6:40 PM EST
Astronomical Twilight 5:23 AM EST 7:11 PM EST
Moon 7:34 PM EST (2/16) 7:22 AM EST (2/16)
Length of Visible Light 11h 45m
Length of Day
10h 51m
Full, 97% of the Moon is Illuminated
Feb 16
Full
Feb 22
Last Quarter
Mar 1
New
Mar 8
First Quarter
Mar 16
Full

Hourly Weather History & Observations

Time (EST) Temp. Windchill Dew Point Humidity Pressure Visibility Wind Dir Wind Speed Gust Speed Precip Events Conditions
12:15 AM 35.6 °F 27.1 °F 19.4 °F 52% 29.95 in 10.0 mi NW 12.7 mph 29.9 mph N/A   Clear
12:35 AM 35.6 °F 25.5 °F 19.4 °F 52% 29.95 in 10.0 mi NW 17.3 mph 32.2 mph N/A   Clear
12:55 AM 35.6 °F 24.0 °F 17.6 °F 48% 29.97 in 10.0 mi NW 23.0 mph 28.8 mph N/A   Clear
1:16 AM 35.6 °F 24.2 °F 17.6 °F 48% 29.96 in 10.0 mi NW 21.9 mph 27.6 mph N/A   Clear
1:36 AM 35.6 °F 26.2 °F 15.8 °F 44% 29.97 in 10.0 mi NW 15.0 mph 31.1 mph N/A   Clear
1:55 AM 35.6 °F 26.6 °F 17.6 °F 48% 29.98 in 10.0 mi NW 13.8 mph 28.8 mph N/A   Clear
2:15 AM 35.6 °F 25.9 °F 15.8 °F 44% 29.99 in 10.0 mi NW 16.1 mph 25.3 mph N/A   Clear
2:35 AM 35.6 °F 25.9 °F 15.8 °F 44% 29.99 in 10.0 mi NW 16.1 mph 25.3 mph N/A   Clear
2:57 AM 33.8 °F 25.8 °F 17.6 °F 52% 30.00 in 10.0 mi NW 10.4 mph 24.2 mph N/A   Clear
3:16 AM 33.8 °F 23.9 °F 17.6 °F 52% 30.00 in 10.0 mi NW 15.0 mph 23.0 mph N/A   Clear
3:35 AM 33.8 °F 23.9 °F 15.8 °F 48% 30.00 in 10.0 mi NW 15.0 mph 21.9 mph N/A   Clear
3:55 AM 33.8 °F 26.4 °F 17.6 °F 52% 30.00 in 10.0 mi NW 9.2 mph 18.4 mph N/A   Clear
4:15 AM 33.8 °F 24.8 °F 17.6 °F 52% 30.01 in 10.0 mi NW 12.7 mph - N/A   Clear
4:35 AM 33.8 °F 25.8 °F 17.6 °F 52% 30.01 in 10.0 mi NW 10.4 mph - N/A   Clear
4:55 AM 33.8 °F 26.4 °F 17.6 °F 52% 30.02 in 10.0 mi NW 9.2 mph - N/A   Clear
5:15 AM 32.0 °F 24.2 °F 17.6 °F 55% 30.02 in 10.0 mi WNW 9.2 mph - N/A   Clear
5:35 AM 32.0 °F 26.4 °F 17.6 °F 55% 30.02 in 10.0 mi WNW 5.8 mph - N/A   Clear
5:55 AM 32.0 °F 26.4 °F 17.6 °F 55% 30.03 in 10.0 mi WNW 5.8 mph - N/A   Clear
6:15 AM 30.2 °F 23.4 °F 17.6 °F 60% 30.04 in 10.0 mi WNW 6.9 mph - N/A   Clear
6:35 AM 32.0 °F 24.8 °F 17.6 °F 55% 30.04 in 10.0 mi NW 8.1 mph - N/A   Clear
6:55 AM 30.2 °F 25.4 °F 17.6 °F 60% 30.05 in 10.0 mi WNW 4.6 mph - N/A   Clear
7:15 AM 32.0 °F 25.6 °F 17.6 °F 55% 30.06 in 10.0 mi WNW 6.9 mph - N/A   Clear
7:35 AM 33.8 °F 29.6 °F 17.6 °F 52% 30.07 in 10.0 mi WNW 4.6 mph - N/A   Clear
7:55 AM 33.8 °F 27.7 °F 19.4 °F 56% 30.08 in 10.0 mi WNW 6.9 mph - N/A   Clear
8:15 AM 33.8 °F 28.6 °F 17.6 °F 52% 30.08 in 10.0 mi WNW 5.8 mph - N/A   Clear
8:35 AM 35.6 °F 28.0 °F 17.6 °F 48% 30.09 in 10.0 mi NW 10.4 mph - N/A   Clear
8:55 AM 35.6 °F 28.0 °F 15.8 °F 44% 30.09 in 10.0 mi NW 10.4 mph - N/A   Clear
9:15 AM 35.6 °F 29.2 °F 12.2 °F 38% 30.09 in 10.0 mi NW 8.1 mph - N/A   Clear
9:35 AM 35.6 °F 27.1 °F 14.0 °F 41% 30.09 in 10.0 mi NW 12.7 mph - N/A   Clear
9:58 AM 35.6 °F 28.0 °F 14.0 °F 41% 30.09 in 10.0 mi WNW 10.4 mph - N/A   Clear
10:15 AM 37.4 °F 29.3 °F 15.8 °F 41% 30.08 in 10.0 mi NW 12.7 mph 17.3 mph N/A   Clear
10:36 AM 37.4 °F 30.3 °F 14.0 °F 38% 30.09 in 10.0 mi NNW 10.4 mph 19.6 mph N/A   Clear
10:55 AM 37.4 °F 31.4 °F 14.0 °F 38% 30.09 in 10.0 mi NNW 8.1 mph 18.4 mph N/A   Clear
11:15 AM 37.4 °F 30.8 °F 15.8 °F 41% 30.08 in 10.0 mi NW 9.2 mph - N/A   Clear
11:35 AM 37.4 °F 30.8 °F 14.0 °F 38% 30.06 in 10.0 mi NNW 9.2 mph - N/A   Clear
11:56 AM 39.2 °F 33.0 °F 15.8 °F 39% 30.06 in 10.0 mi NW 9.2 mph - N/A   Clear
12:15 PM 37.4 °F 32.1 °F 15.8 °F 41% 30.05 in 10.0 mi NNW 6.9 mph - N/A   Clear
12:35 PM 39.2 °F 37.0 °F 14.0 °F 36% 30.04 in 10.0 mi NNW 3.5 mph - N/A   Clear
12:55 PM 39.2 °F 37.0 °F 14.0 °F 36% 30.03 in 10.0 mi West 3.5 mph - N/A   Clear
1:15 PM 39.2 °F 35.9 °F 15.8 °F 39% 30.03 in 10.0 mi WSW 4.6 mph - N/A   Clear
1:35 PM 41.0 °F 37.1 °F 15.8 °F 36% 30.03 in 10.0 mi West 5.8 mph - N/A   Clear
1:56 PM 41.0 °F 35.8 °F 17.6 °F 39% 30.02 in 10.0 mi WNW 8.1 mph - N/A   Clear
2:15 PM 42.8 °F 39.3 °F 15.8 °F 34% 30.01 in 10.0 mi WSW 5.8 mph - N/A   Clear
2:35 PM 42.8 °F - 12.2 °F 29% 30.00 in 10.0 mi Calm Calm - N/A   Clear
2:55 PM 44.6 °F 39.7 °F 10.4 °F 25% 29.99 in 10.0 mi SW 9.2 mph 17.3 mph N/A   Clear
3:15 PM 44.6 °F 41.4 °F 14.0 °F 29% 29.99 in 10.0 mi South 5.8 mph - N/A   Clear
3:36 PM 44.6 °F 40.2 °F 15.8 °F 31% 29.99 in 10.0 mi SSW 8.1 mph - N/A   Clear
3:55 PM 42.8 °F 37.5 °F 17.6 °F 36% 29.99 in 10.0 mi South 9.2 mph - N/A   Clear
4:15 PM 42.8 °F 37.5 °F 19.4 °F 39% 29.99 in 10.0 mi South 9.2 mph - N/A   Clear
4:36 PM 42.8 °F 38.0 °F 19.4 °F 39% 29.99 in 10.0 mi SSE 8.1 mph - N/A   Clear
4:56 PM 41.0 °F 38.0 °F 21.2 °F 45% 30.00 in 10.0 mi South 4.6 mph - N/A   Scattered Clouds
5:15 PM 39.2 °F 35.0 °F 21.2 °F 49% 30.00 in 10.0 mi SSE 5.8 mph - N/A   Mostly Cloudy
5:35 PM 39.2 °F 35.9 °F 21.2 °F 49% 30.01 in 10.0 mi SSE 4.6 mph - N/A   Overcast
5:55 PM 39.2 °F 35.0 °F 21.2 °F 49% 30.01 in 10.0 mi SSE 5.8 mph - N/A   Overcast
6:15 PM 39.2 °F 35.9 °F 21.2 °F 49% 30.02 in 10.0 mi SE 4.6 mph - N/A   Overcast
6:35 PM 37.4 °F 33.8 °F 23.0 °F 56% 30.03 in 10.0 mi SE 4.6 mph - N/A   Overcast
6:56 PM 37.4 °F - 21.2 °F 52% 30.05 in 10.0 mi Calm Calm - N/A   Overcast
7:15 PM 37.4 °F - 23.0 °F 56% 30.05 in 10.0 mi Calm Calm - N/A   Overcast
7:37 PM 37.4 °F - 23.0 °F 56% 30.06 in 10.0 mi Calm Calm - N/A   Overcast
7:55 PM 37.4 °F 33.8 °F 23.0 °F 56% 30.05 in 10.0 mi South 4.6 mph - N/A   Mostly Cloudy
8:15 PM 37.4 °F 34.9 °F 24.8 °F 60% 30.05 in 10.0 mi South 3.5 mph - N/A   Scattered Clouds
8:35 PM 35.6 °F - 24.8 °F 65% 30.07 in 10.0 mi Calm Calm - N/A   Clear
8:55 PM 35.6 °F 30.7 °F 24.8 °F 65% 30.08 in 10.0 mi North 5.8 mph - N/A   Clear
9:15 PM 35.6 °F 29.2 °F 24.8 °F 65% 30.10 in 10.0 mi North 8.1 mph - N/A   Mostly Cloudy
9:35 PM 35.6 °F 29.2 °F 24.8 °F 65% 30.12 in 10.0 mi North 8.1 mph - N/A   Mostly Cloudy
9:55 PM 35.6 °F 29.2 °F 24.8 °F 65% 30.13 in 10.0 mi North 8.1 mph - N/A   Mostly Cloudy
10:15 PM 37.4 °F 31.4 °F 21.2 °F 52% 30.15 in 10.0 mi North 8.1 mph - N/A   Scattered Clouds
10:35 PM 37.4 °F 30.3 °F 21.2 °F 52% 30.16 in 10.0 mi North 10.4 mph 16.1 mph N/A   Scattered Clouds
10:55 PM 37.4 °F 32.1 °F 21.2 °F 52% 30.16 in 10.0 mi North 6.9 mph - N/A   Mostly Cloudy
11:15 PM 37.4 °F 32.8 °F 23.0 °F 56% 30.17 in 10.0 mi NNW 5.8 mph - N/A   Overcast
11:35 PM 37.4 °F 32.1 °F 24.8 °F 60% 30.17 in 10.0 mi NNW 6.9 mph 17.3 mph N/A   Overcast
11:55 PM 37.4 °F 31.4 °F 24.8 °F 60% 30.18 in 10.0 mi NNW 8.1 mph 16.1 mph N/A   Overcast